TimeEDT,TemperatureF,Dew PointF,Humidity,Sea Level PressureIn,VisibilityMPH,Wind Direction,Wind SpeedMPH,Gust SpeedMPH,PrecipitationIn,Events,Conditions,WindDirDegrees,DateUTC
12:53 AM,84.0,72.0,67,29.96,10.0,South,6.9,-,N/A,,Scattered Clouds,180,2013-07-13 04:53:00
1:53 AM,82.9,72.0,69,29.95,10.0,SSW,6.9,-,N/A,,Partly Cloudy,200,2013-07-13 05:53:00
2:53 AM,82.9,72.0,69,29.94,10.0,SSW,8.1,-,N/A,,Clear,200,2013-07-13 06:53:00
3:53 AM,82.9,72.0,69,29.93,10.0,South,8.1,-,N/A,,Clear,190,2013-07-13 07:53:00
4:53 AM,82.9,72.0,69,29.93,10.0,South,6.9,-,N/A,,Partly Cloudy,180,2013-07-13 08:53:00
5:53 AM,82.9,72.0,69,29.94,10.0,South,6.9,-,N/A,,Scattered Clouds,180,2013-07-13 09:53:00
6:37 AM,82.4,71.6,70,29.95,10.0,South,9.2,18.4,N/A,,Mostly Cloudy,180,2013-07-13 10:37:00
6:53 AM,82.9,71.1,67,29.95,10.0,South,9.2,18.4,N/A,,Scattered Clouds,180,2013-07-13 10:53:00
7:32 AM,82.4,71.6,70,29.95,10.0,SSW,10.4,18.4,N/A,,Mostly Cloudy,200,2013-07-13 11:32:00
7:44 AM,84.2,71.6,66,29.95,10.0,South,9.2,17.3,N/A,,Scattered Clouds,190,2013-07-13 11:44:00
7:53 AM,84.0,71.1,65,29.95,10.0,South,9.2,-,N/A,,Scattered Clouds,190,2013-07-13 11:53:00
8:53 AM,86.0,71.1,61,29.97,10.0,South,9.2,19.6,N/A,,Clear,190,2013-07-13 12:53:00
9:49 AM,87.8,71.6,58,29.98,10.0,South,11.5,18.4,N/A,,Mostly Cloudy,170,2013-07-13 13:49:00
9:53 AM,88.0,72.0,59,29.98,10.0,South,9.2,18.4,N/A,,Mostly Cloudy,170,2013-07-13 13:53:00
10:07 AM,87.8,71.6,58,29.99,10.0,South,8.1,16.1,N/A,,Scattered Clouds,170,2013-07-13 14:07:00
10:53 AM,88.0,73.0,61,29.99,10.0,South,8.1,-,N/A,,Mostly Cloudy,180,2013-07-13 14:53:00
11:53 AM,89.1,73.0,59,29.99,10.0,South,9.2,18.4,N/A,,Partly Cloudy,190,2013-07-13 15:53:00
12:53 PM,90.0,73.0,57,29.99,10.0,South,8.1,16.1,N/A,,Clear,190,2013-07-13 16:53:00
1:53 PM,89.1,73.9,61,29.99,10.0,SSW,6.9,-,N/A,,Scattered Clouds,200,2013-07-13 17:53:00
2:53 PM,91.9,75.0,58,29.97,10.0,Variable,6.9,-,N/A,,Partly Cloudy,0,2013-07-13 18:53:00
3:53 PM,90.0,73.9,59,29.97,10.0,South,6.9,-,N/A,,Mostly Cloudy,190,2013-07-13 19:53:00
4:53 PM,88.0,73.9,63,29.95,10.0,South,6.9,-,N/A,,Scattered Clouds,180,2013-07-13 20:53:00
5:12 PM,87.8,71.6,58,29.95,10.0,South,10.4,19.6,N/A,Thunderstorm,Clear,170,2013-07-13 21:12:00
5:40 PM,87.8,71.6,58,29.95,10.0,SSE,9.2,18.4,N/A,,Scattered Clouds,150,2013-07-13 21:40:00
5:51 PM,87.8,73.4,62,29.96,8.0,South,11.5,16.1,0.00,Rain-Thunderstorm,Light Rain,170,2013-07-13 21:51:00
5:53 PM,86.0,75.0,70,29.96,4.0,South,12.7,20.7,0.01,Rain-Thunderstorm,Light Rain,170,2013-07-13 21:53:00
6:00 PM,82.4,71.6,70,29.96,3.0,South,15.0,24.2,0.01,Rain,Light Rain,180,2013-07-13 22:00:00
6:53 PM,84.0,73.9,72,29.96,10.0,South,10.4,20.7,0.03,,Mostly Cloudy,170,2013-07-13 22:53:00
7:53 PM,84.0,71.1,65,29.97,10.0,South,6.9,-,N/A,,Clear,170,2013-07-13 23:53:00
8:53 PM,84.0,71.1,65,29.97,10.0,SSW,4.6,-,N/A,,Mostly Cloudy,200,2013-07-14 00:53:00
9:51 PM,84.2,71.6,66,30.01,10.0,SSE,4.6,-,N/A,Thunderstorm,Mostly Cloudy,150,2013-07-14 01:51:00
9:53 PM,84.0,72.0,67,30.01,10.0,SSE,5.8,-,N/A,Thunderstorm,Mostly Cloudy,150,2013-07-14 01:53:00
10:26 PM,77.0,69.8,78,30.02,2.5,West,11.5,19.6,0.07,Rain-Thunderstorm,Light Thunderstorms and Rain,260,2013-07-14 02:26:00
10:34 PM,77.0,69.8,78,30.03,6.0,WSW,10.4,18.4,0.08,Rain-Thunderstorm,Light Thunderstorms and Rain,250,2013-07-14 02:34:00
10:43 PM,75.2,69.8,83,30.03,1.8,SW,6.9,-,0.14,Rain-Thunderstorm,Heavy Thunderstorms and Rain,220,2013-07-14 02:43:00
10:53 PM,75.9,71.1,85,30.04,1.5,South,12.7,19.6,0.22,Rain-Thunderstorm,Thunderstorms and Rain,170,2013-07-14 02:53:00
11:11 PM,75.2,71.6,89,30.03,2.0,SE,4.6,-,0.17,Rain,Heavy Rain,140,2013-07-14 03:11:00
11:22 PM,75.2,69.8,83,30.03,5.0,SE,3.5,-,0.18,Rain,Light Rain,140,2013-07-14 03:22:00
11:39 PM,75.2,69.8,83,30.03,8.0,ESE,5.8,-,0.20,Rain-Thunderstorm,Light Thunderstorms and Rain,110,2013-07-14 03:39:00
11:53 PM,77.0,70.0,79,30.03,10.0,Calm,Calm,-,0.21,Rain,Light Rain,0,2013-07-14 03:53:00